Date String (YYYY-MM-DD hh:mm:ss) UTC,Instrument flags,Ambient pressure (hPa),Sample flow (lpm),Bypass flow (lpm),Sample temperature (°C),Ambient temperature (°C),ASC tube jacket temperature (°C),LED temperature (°C),Box temperature (°C),Sample RH (%),Span deviation,Mass concentration (μg/m³),Mass concentration (μg/m³),Mass concentration (μg/m³)
DateTimeUTC,F1_M11,P_M11,Q1_M11,Q2_M11,T1_M11,T2_M11,T3_M11,T4_M11,T5_M11,U1_M11,ZSPAN_M11,X0_M11,X2_M11,X1_M11
2022-02-18 18:00:00,,0829.3,5.01,0.00,24.1,23.4,00.0,33.0,26.0,09.5,0000.0,0013.89,0004.75,0004.09
2022-02-18 18:01:00,,0829.2,4.99,0.00,24.2,23.4,00.0,33.0,26.0,09.5,0000.0,0013.90,0004.74,0004.10
2022-02-18 18:02:00,,0828.9,5.02,0.00,24.2,23.4,00.0,33.0,26.1,09.3,0000.0,0014.56,0004.72,0004.09
2022-02-18 18:03:00,,0828.7,4.98,0.00,24.2,23.4,00.0,33.0,26.1,09.0,0000.0,0014.91,0004.71,0004.08
2022-02-18 18:04:00,,0828.7,5.00,0.00,24.2,23.4,00.0,33.0,26.1,08.7,0000.0,0015.51,0004.73,0004.09
2022-02-18 18:05:00,,0828.7,5.00,0.00,24.2,23.5,00.0,33.0,26.1,08.8,0000.0,0015.67,0004.71,0004.10
2022-02-18 18:06:00,,0828.6,5.00,0.00,24.2,23.5,00.0,33.1,26.1,08.5,0000.0,0015.39,0004.69,0004.11
2022-02-18 18:07:00,,0828.6,5.00,0.00,24.2,23.5,00.0,33.1,26.1,08.1,0000.0,0014.40,0004.66,0004.11
2022-02-18 18:08:00,,0828.7,5.01,0.00,24.3,23.5,00.0,33.1,26.1,08.1,0000.0,0013.96,0004.65,0004.12
2022-02-18 18:09:00,,0828.8,5.00,0.00,24.3,23.5,00.0,33.1,26.2,08.2,0000.0,0012.70,0004.63,0004.13
2022-02-18 18:10:00,,0828.8,5.00,0.00,24.3,23.5,00.0,33.1,26.2,08.0,0000.0,0012.09,0004.62,0004.13
2022-02-18 18:11:00,,0829.3,5.00,0.00,24.3,23.5,00.0,33.1,26.2,08.2,0000.0,0011.08,0004.60,0004.13
2022-02-18 18:12:00,,0829.2,4.99,0.00,24.3,23.5,00.0,33.2,26.3,08.3,0000.0,0011.34,0004.59,0004.14
2022-02-18 18:13:00,,0829.4,5.00,0.00,24.3,23.5,00.0,33.2,26.3,08.3,0000.0,0010.76,0004.56,0004.15
2022-02-18 18:14:00,,0829.3,5.01,0.00,24.4,23.5,00.0,33.2,26.3,08.1,0000.0,0010.38,0004.57,0004.17
2022-02-18 18:15:00,,0829.3,4.99,0.00,24.4,23.5,00.0,33.2,26.3,08.4,0000.0,0009.79,0004.57,0004.18
2022-02-18 18:16:00,,0829.3,5.00,0.00,24.4,23.5,00.0,33.2,26.3,08.5,0000.0,0009.48,0004.56,0004.19
2022-02-18 18:17:00,,0829.0,4.99,0.00,24.4,23.6,00.0,33.2,26.2,08.6,0000.0,0009.38,0004.59,0004.22
2022-02-18 18:18:00,,0828.7,5.02,0.00,24.4,23.6,00.0,33.2,26.3,08.6,0000.0,0009.46,0004.62,0004.26
2022-02-18 18:19:00,,0828.7,4.98,0.00,24.4,23.5,00.0,33.3,26.3,08.8,0000.0,0010.42,0004.70,0004.30
2022-02-18 18:20:00,,0828.8,5.01,0.00,24.3,23.5,00.0,33.3,26.3,09.1,0000.0,0010.69,0004.78,0004.34
2022-02-18 18:21:00,,0828.6,4.99,0.00,24.4,23.6,00.0,33.3,26.3,08.5,0000.0,0010.58,0004.79,0004.36
2022-02-18 18:22:00,,0828.7,4.99,0.00,24.4,23.6,00.0,33.3,26.3,08.5,0000.0,0010.22,0004.77,0004.39
2022-02-18 18:23:00,,0828.7,5.01,0.00,24.4,23.6,00.0,33.3,26.3,08.4,0000.0,0009.33,0004.82,0004.41
2022-02-18 18:24:00,,0828.7,5.00,0.00,24.4,23.6,00.0,33.3,26.3,08.4,0000.0,0009.20,0004.85,0004.43
2022-02-18 18:25:00,,0828.7,5.02,0.00,24.4,23.6,00.0,33.3,26.3,08.7,0000.0,0009.03,0004.86,0004.44
2022-02-18 18:26:00,,0828.7,4.99,0.00,24.4,23.6,00.0,33.3,26.3,08.0,0000.0,0008.94,0004.83,0004.43
2022-02-18 18:27:00,,0828.7,5.02,0.00,24.4,23.7,00.0,33.3,26.3,08.0,0000.0,0008.91,0004.82,0004.42
2022-02-18 18:28:00,,0828.7,4.99,0.00,24.4,23.7,00.0,33.3,26.4,08.1,0000.0,0008.84,0004.77,0004.40
2022-02-18 18:29:00,,0829.2,4.99,0.00,24.4,23.7,00.0,33.3,26.4,08.5,0000.0,0008.80,0004.73,0004.37
2022-02-18 18:30:00,,0829.3,5.01,0.00,24.4,23.7,00.0,33.4,26.4,08.5,0000.0,0007.99,0004.68,0004.35
2022-02-18 18:31:00,,0828.8,5.00,0.00,24.5,23.7,00.0,33.4,26.4,07.9,0000.0,0007.63,0004.63,0004.30
2022-02-18 18:32:00,,0828.8,5.00,0.00,24.5,23.8,00.0,33.4,26.4,07.8,0000.0,0007.47,0004.58,0004.25
2022-02-18 18:33:00,,0828.9,4.99,0.00,24.5,23.8,00.0,33.4,26.4,08.1,0000.0,0007.42,0004.52,0004.20
2022-02-18 18:34:00,,0828.8,5.01,0.00,24.5,23.8,00.0,33.4,26.4,08.4,0000.0,0007.31,0004.45,0004.15
2022-02-18 18:35:00,,0828.9,5.00,0.00,24.5,23.8,00.0,33.4,26.4,08.1,0000.0,0007.28,0004.42,0004.12
2022-02-18 18:36:00,,0828.9,4.99,0.00,24.5,23.8,00.0,33.4,26.5,08.1,0000.0,0007.13,0004.39,0004.10
2022-02-18 18:37:00,,0828.9,5.01,0.00,24.6,23.8,00.0,33.4,26.5,08.3,0000.0,0007.06,0004.37,0004.08
2022-02-18 18:38:00,,0828.9,5.01,0.00,24.6,23.8,00.0,33.4,26.5,08.2,0000.0,0007.14,0004.37,0004.07
2022-02-18 18:39:00,,0829.1,5.00,0.00,24.6,23.8,00.0,33.5,26.5,08.5,0000.0,0007.15,0004.38,0004.07
2022-02-18 18:40:00,,0829.2,5.01,0.00,24.6,23.8,00.0,33.5,26.5,08.6,0000.0,0007.00,0004.37,0004.07
2022-02-18 18:41:00,,0828.9,5.00,0.00,24.6,23.9,00.0,33.5,26.5,08.3,0000.0,0006.96,0004.32,0004.04
2022-02-18 18:42:00,,0828.7,5.00,0.00,24.6,23.9,00.0,33.5,26.5,08.0,0000.0,0007.91,0004.30,0004.03
2022-02-18 18:43:00,,0828.7,5.01,0.00,24.6,23.9,00.0,33.5,26.6,08.0,0000.0,0008.27,0004.31,0004.03
2022-02-18 18:44:00,,0829.1,5.00,0.00,24.7,23.9,00.0,33.5,26.6,08.0,0000.0,0008.82,0004.35,0004.04
2022-02-18 18:45:00,,0828.7,5.00,0.00,24.7,24.0,00.0,33.5,26.6,08.1,0000.0,0009.10,0004.37,0004.04
2022-02-18 18:46:00,,0828.7,5.01,0.00,24.7,24.0,00.0,33.5,26.6,08.2,0000.0,0009.06,0004.37,0004.05
2022-02-18 18:47:00,,0828.7,5.00,0.00,24.7,24.0,00.0,33.6,26.6,08.0,0000.0,0009.07,0004.36,0004.05
2022-02-18 18:48:00,,0828.8,5.01,0.00,24.7,24.0,00.0,33.6,26.6,08.0,0000.0,0009.21,0004.38,0004.06
2022-02-18 18:49:00,,0828.8,4.99,0.00,24.7,24.0,00.0,33.6,26.7,07.8,0000.0,0009.71,0004.37,0004.06
2022-02-18 18:50:00,,0828.6,5.01,0.00,24.7,24.0,00.0,33.6,26.7,08.0,0000.0,0010.22,0004.37,0004.06
2022-02-18 18:51:00,,0828.6,4.99,0.00,24.7,24.0,00.0,33.6,26.7,07.9,0000.0,0010.35,0004.38,0004.07
2022-02-18 18:52:00,,0828.8,5.01,0.00,24.8,24.1,00.0,33.6,26.7,08.3,0000.0,0010.31,0004.39,0004.07
2022-02-18 18:53:00,,0828.9,4.98,0.00,24.8,24.1,00.0,33.6,26.7,08.4,0000.0,0009.47,0004.40,0004.07
2022-02-18 18:54:00,,0828.8,5.00,0.00,24.8,24.1,00.0,33.7,26.7,07.9,0000.0,0009.26,0004.44,0004.09
2022-02-18 18:55:00,,0828.7,4.99,0.00,24.8,24.1,00.0,33.7,26.7,08.0,0000.0,0008.77,0004.45,0004.10
2022-02-18 18:56:00,,0828.7,5.00,0.00,24.8,24.1,00.0,33.7,26.7,08.4,0000.0,0008.60,0004.46,0004.10
2022-02-18 18:57:00,,0828.7,5.01,0.00,24.8,24.2,00.0,33.7,26.8,08.5,0000.0,0008.76,0004.47,0004.11
2022-02-18 18:58:00,,0828.7,4.99,0.00,24.9,24.2,00.0,33.7,26.8,08.4,0000.0,0009.23,0004.51,0004.12
2022-02-18 18:59:00,,0828.7,5.01,0.00,24.9,24.2,00.0,33.7,26.8,08.2,0000.0,0009.27,0004.52,0004.15
